This is the latest recevied weather packets stored in our database for station/object TA6B-11. If no packets are shown the sender has not sent any weather packets the latest 10 day(s).
| Time | Temp. | Humidity | Pressure | Rain* | Wind** | Luminosity | Snow |
|---|---|---|---|---|---|---|---|
| 1777541586 | 18.33° C | 36% | 1005 hPa | - | - | 0 W/m² | - |
| 1777541260 | 18.33° C | 36% | 1005 hPa | - | - | 0 W/m² | - |
| 1777540936 | 18.33° C | 36% | 1005 hPa | - | - | 0 W/m² | - |
| 1777540610 | 18.33° C | 36% | 1005 hPa | - | - | 0 W/m² | - |
| 1777540288 | 18.89° C | 36% | 1005 hPa | - | - | 0 W/m² | - |
| 1777539961 | 19.44° C | 35% | 1005 hPa | - | - | 0 W/m² | - |
| 1777539710 | 18.33° C | 35% | 1005 hPa | - | - | 0 W/m² | - |
| 1777539164 | 18.33° C | 35% | 1005 hPa | - | - | 0 W/m² | - |
| 1777538661 | 18.33° C | 35% | 1005 hPa | - | - | 0 W/m² | - |
| 1777538117 | 18.33° C | 37% | 1005 hPa | - | - | 0 W/m² | - |
| 1777537526 | 18.33° C | 36% | 1006 hPa | - | - | 0 W/m² | - |
| 1777536274 | 17.78° C | 36% | 1006 hPa | - | - | 0 W/m² | - |
| 1777535402 | 17.78° C | 40% | 1006 hPa | - | - | 0 W/m² | - |
| 1777533346 | 17.22° C | 43% | 1005 hPa | - | - | 0 W/m² | - |
| 1777532224 | 17.22° C | 45% | 1005 hPa | - | - | 0 W/m² | - |
| 1777531559 | 16.67° C | 43% | 1005 hPa | - | - | 0 W/m² | - |
| 1777530710 | 16.67° C | 38% | 1005 hPa | - | - | 0 W/m² | - |
| 1777530000 | 16.67° C | 38% | 1005 hPa | - | - | 0 W/m² | - |
| 1777529170 | 16.11° C | 40% | 1006 hPa | - | - | 0 W/m² | - |
| 1777527536 | 15.56° C | 42% | 1006 hPa | - | - | 0 W/m² | - |
| 1777526915 | 15.56° C | 43% | 1006 hPa | - | - | 0 W/m² | - |
| 1777526189 | 15° C | 47% | 1006 hPa | - | - | 0 W/m² | - |
| 1777524765 | 14.44° C | 49% | 1006 hPa | - | - | 0 W/m² | - |
| 1777524439 | 14.44° C | 49% | 1006 hPa | - | - | 0 W/m² | - |
| 1777524112 | 14.44° C | 49% | 1006 hPa | - | - | 0 W/m² | - |
* Rain since midnight (hover to see other rain measurements)
** Current wind speed in m/s (hover to see current wind gust speed)